Location: French River
(46.0362°N, 80.5373°W)
Time: 19:16:36
(UTC-04:00)

ISS - Visible Passes

Search period start: 18 October 2019 00:00
Search period end: 28 October 2019 00:00
Orbit: 411 x 421 km, 51.6° (Epoch: 19 October)

Date Brightness Start Highest point End Pass type
(mag) Time Alt. Az. Time Alt. Az. Time Alt. Az.
22 Oct -0.4 07:03:01 10° SSE 07:04:02 11° SE 07:05:02 10° ESE visible
24 Oct -1.6 07:00:21 10° SSW 07:03:14 26° SE 07:06:07 10° E visible
25 Oct -1.0 06:12:34 10° S 06:14:48 17° SE 06:17:03 10° E visible
26 Oct -0.6 05:26:06 10° SE 05:26:26 10° SE 05:26:46 10° SE visible
26 Oct -3.3 06:59:15 10° SW 07:02:34 63° SSE 07:05:55 10° ENE visible
27 Oct -2.6 06:12:34 25° SSW 06:14:02 39° SE 06:17:12 10° ENE visible
